NIMIQ 5

导读

Nimiq 5卫星由加拿大(CA)发射,于北京时间2009年9月17日成功入轨,是一颗专为北美地区提供广播通信服务的高性能通信卫星。该卫星采用先进技术平台打造,携带多路转发器,可覆盖加拿大与美国本土,提供高清电视、数字广播和宽带网络传输服务。设计服役寿命超过15年,至今稳定服役,是加拿大重要的广播电视基础设施。

基本信息
目录编号:
35873
目录名称:
NIMIQ 5
国际标识:
2009-050A
轨道中心:
EARTH
卫星名称:
NIMIQ 5
卫星全名:
--
卫星状态:
在轨 (已飞行6144 天)
发射日期:
2009-09-17 UTC
国别 :
加拿大 (CA)
星等 :
--
轨道信息
数据来源 国际轨道数据 AOE轨道数据
星历时间 2026-07-14T03:57:42+0800
11小时前
查看轨道信息
2026-07-13T09:00:00+0800
1天前
查看轨道信息
半长轴 42164.924km 42165.009km
偏心率 0.0002513 0.0002486
轨道倾角 0.050° 0.044°
近地点辐角 218.409° 195.111°
升交点赤经 249.609° 270.691°
平近点角 50.405° 127.416°
近地点 35776.19km 35776.389km
远地点 35797.384km 35797.355km
周期 1436.107分钟 1436.111分钟
每日圈数 1.002711 1.002708
详细信息
使用方式:
暂无
2D轨道图
3D轨道图
轨道高度分析图
轨道倾角分析图
轨道综合分析图
查看轨道综合分析图